Home   Weather   Thessaloniki   Past weeks

Flag for Greece Past Weather in Thessaloniki, Greece — Yesterday and Last 2 Weeks

64 °F

Partly sunny.

Feels Like: 64 °F
Forecast: 56 / 60 °F
Wind: 6 mph from Southeast

Location: Thessaloniki Airport

Current Time: Oct 26, 2016 at 2:24:33 PM

Latest Report: Oct 26, 2016 at 1:50 PM

Visibility: N/A

Pressure: 30.12 "Hg

Humidity: 73%

Dew Point: 55 °F

Location of ThessalonikiLocation

Past Weather in Thessaloniki — Graph


Thessaloniki Temperature Yesterday

Maximum temperature yesterday: 68 °F (at 11:50 AM)
Minimum temperature yesterday: 59 °F (at 12:20 AM)
Average temperature yesterday: 63 °F

High & Low Weather Summary for the Past Weeks

High73 °F (Oct 12, 11:20 AM)100% (Oct 11, 1:20 PM)30.36 "Hg (Oct 11, 1:20 PM)
Low46 °F (Oct 14, 5:50 AM)29% (Oct 13, 3:20 PM)29.65 "Hg (Oct 12, 5:50 AM)
Average61 °F75%30.13 "Hg
* Reported Oct 11 12:50 PM — Oct 26 12:50 PM, Thessaloniki, Weather by CustomWeather, © 2016

Note: Actual official high and low records may vary slightly from our data, if they occured in-between our weather recording intervals... More about our weather records


Thessaloniki Weather History for the Previous 24 Hours

Scroll right to see more
Time TempWeatherWind HumidityBarometerVisibility
12:50 PM
Wed, Oct 26
64 °FPartly sunny.7 mph68%30.15 "Hg6 mi
12:20 PM64 °FPartly sunny.7 mph68%30.18 "Hg6 mi
11:50 AM64 °FPartly sunny.7 mph68%30.15 "Hg6 mi
11:20 AM64 °FPartly sunny.7 mph68%30.18 "Hg5 mi
10:50 AM64 °FPartly sunny.6 mph68%30.18 "Hg5 mi
10:20 AM63 °FPartly sunny.5 mph73%30.21 "Hg5 mi
9:50 AM63 °FPartly sunny.5 mph77%30.18 "Hg5 mi
8:50 AM61 °FPartly sunny.3 mph88%30.18 "Hg5 mi
8:20 AM61 °FScattered clouds.2 mph88%30.18 "Hg5 mi
7:50 AM61 °FPassing clouds.3 mph88%30.18 "Hg5 mi
7:20 AM61 °FPassing clouds.2 mph88%30.18 "HgN/A
6:50 AM61 °FPassing clouds.2 mph88%30.18 "HgN/A
6:20 AM61 °FPassing clouds.2 mph88%30.21 "HgN/A
5:50 AM61 °FPassing clouds.2 mph88%30.21 "HgN/A
5:20 AM61 °FPassing clouds.2 mph88%30.21 "HgN/A
4:50 AM61 °FPassing clouds.2 mph94%30.21 "HgN/A
4:20 AM61 °FPassing clouds.2 mph88%30.21 "HgN/A
3:50 AM61 °FPassing clouds.3 mph88%30.21 "HgN/A
3:20 AM61 °FPassing clouds.2 mph88%30.24 "HgN/A
2:50 AM61 °FPassing clouds.3 mph88%30.24 "HgN/A
2:20 AM61 °FPassing clouds.2 mph88%30.27 "HgN/A
1:50 AM61 °FPassing clouds.3 mph88%30.27 "HgN/A
1:20 AM61 °FPassing clouds.3 mph88%30.27 "HgN/A
12:50 AM61 °FPassing clouds.3 mph88%30.27 "HgN/A
12:20 AM61 °FPassing clouds.3 mph88%30.30 "HgN/A
11:50 PM
Tue, Oct 25
61 °FPassing clouds.3 mph88%30.30 "HgN/A
11:20 PM61 °FPassing clouds.3 mph88%30.30 "HgN/A
10:50 PM61 °FPassing clouds.3 mph88%30.30 "HgN/A
10:20 PM59 °FPassing clouds.3 mph94%30.30 "HgN/A
9:50 PM59 °FPassing clouds.3 mph88%30.30 "HgN/A
9:20 PM61 °FPassing clouds.3 mph83%30.30 "HgN/A
8:50 PM61 °FPassing clouds.2 mph83%30.30 "HgN/A
8:20 PM59 °FPassing clouds.5 mph82%30.30 "HgN/A
7:50 PM61 °FPassing clouds.3 mph83%30.27 "HgN/A
7:20 PM63 °FPassing clouds.3 mph77%30.27 "HgN/A
6:50 PM64 °FPassing clouds.7 mph73%30.27 "HgN/A
6:20 PM64 °FScattered clouds.7 mph73%30.27 "HgN/A
5:50 PM66 °FScattered clouds.7 mph68%30.27 "HgN/A
5:20 PM68 °FScattered clouds.7 mph64%30.27 "HgN/A
4:50 PM68 °FScattered clouds.5 mph64%30.30 "HgN/A
4:20 PM68 °FScattered clouds.3 mph64%30.30 "HgN/A
3:50 PM68 °FScattered clouds.5 mph64%30.30 "HgN/A
3:20 PM68 °FScattered clouds.3 mph64%30.30 "HgN/A
2:50 PM68 °FScattered clouds.3 mph69%30.30 "HgN/A
2:20 PM68 °FScattered clouds.3 mph64%30.33 "HgN/A
Weather by CustomWeather, © 2016

See weather overviewHow to use our weather pages